User: anonymous   Login
Location: Unspecified
(0.0000°N, 0.0000°E)
Time: 03:34:59
(UTC+00:00)
Language:

NADEZHDA 7 - Orbit

View from above orbital plane
View from above orbital plane
View from above satellite
View from above satellite

Ground track
Ground track

The orbit data is extracted from the following two-line orbital elements,

1 27534U 02046A   17112.96087584 +.00000050 +00000-0 +38618-4 0  9997
2 27534 082.9325 279.8758 0034953 259.1410 269.6652 13.72684567730010
Epoch (UTC): 22 April 2017 23:03:39
Eccentricity: 0.0034953
inclination: 82.9325°
perigee height: 964 km
apogee height: 1016 km
right ascension of ascending node: 279.8758°
argument of perigee: 259.1410°
revolutions per day: 13.72684567
mean anomaly at epoch: 269.6652°
orbit number at epoch: 73001

The dashed part of the orbit path shows where the satellite is in the earth's shadow,  

DLR